RANGE-A
1 43773U 18099R 24305.40410140 .00015698 00000-0 11052-2 0 9999
2 43773 97.4848 354.3507 0011054 223.6171 136.4183 15.05074278322907
MOVE-II
1 43780U 18099Y 24305.63935451 .00073899 00000-0 26987-2 0 9999
2 43780 97.5028 8.1929 0004694 211.0530 149.0432 15.27815806323665
SNUSat 2
1 43782U 18099AA 24305.41351889 .00021132 00000-0 13505-2 0 9999
2 43782 97.4969 358.9455 0013329 189.9949 170.1016 15.08578383323086
SnugLite
1 43784U 18099AC 24305.57233042 .00025327 00000-0 15427-2 0 9993
2 43784 97.4789 358.4001 0003781 185.7905 174.3281 15.10362870323194
ITASat 1
1 43786U 18099AE 24305.56004687 .00018625 00000-0 12206-2 0 9990
2 43786 97.4932 359.1275 0014791 244.7390 115.2306 15.07661228323090
EAGLET 1
1 43790U 18099AJ 24305.43690891 .00015340 00000-0 10718-2 0 9996
2 43790 97.5122 359.4526 0012305 222.5510 137.4764 15.05351598322756
ESEO
1 43792U 18099AL 24305.73773877 .00006967 00000-0 55081-3 0 9995
2 43792 97.4921 355.6199 0007237 178.7139 181.4105 15.00928078322672
CSIM
1 43793U 18099AM 24305.73087212 .00077358 00000-0 28802-2 0 9999
2 43793 97.5163 10.0984 0009867 192.2660 167.8340 15.27126001323526
JO-97
1 43803U 18099AX 24305.13084533 .00031346 00000-0 18076-2 0 9997
2 43803 97.5025 1.0539 0008748 187.6258 172.4841 15.12274244323209
Suomi 100
1 43804U 18099AY 24305.40229490 .00025414 00000-0 15179-2 0 9991
2 43804 97.5098 1.0463 0014262 189.3439 170.7527 15.10998067323211
ISAT
1 43879U 18111D 24305.17278616 .00040868 00000-0 20626-2 0 9999
2 43879 97.6056 210.6428 0008831 248.6873 111.3417 15.16953673319981
UWE-4
1 43880U 18111E 24305.73421678 .00034020 00000-0 18020-2 0 9999
2 43880 97.5996 210.8267 0012149 259.9070 100.0791 15.15263346318067
Sparrow
1 43881U 18111F 24305.68602124 .00040887 00000-0 20228-2 0 9992
2 43881 97.6165 213.3500 0006660 303.2214 56.8380 15.17667381318138
Prox-1
1 44339U 19036A 24305.58048772 .00027050 00000-0 41855-2 0 9996
2 44339 23.9990 64.9570 0009048 85.7747 274.3782 14.71805028285326
SONATE
1 44400U 19038Q 24305.44685889 .00068725 00000-0 14364-2 0 9997
2 44400 97.7140 306.6231 0012154 353.1740 6.9340 15.45176774295037
Taurus 1
1 44530U 19059C 24305.82516723 .00027033 00000-0 56761-2 0 9990
2 44530 98.5881 70.0661 0009758 354.0997 6.0085 14.59533177271669
Duchifat 3
1 44854U 19089C 24305.70210769 .00049242 00000-0 19240-2 0 9997
2 44854 36.9542 295.7069 0010377 184.0505 176.0162 15.24862030268982
TO-108
1 44881U 19093C 24305.84098922 .00004856 00000-0 58087-3 0 9997
2 44881 97.8179 19.9700 0013035 232.2548 127.7486 14.84551753263315
FloripaSat 1
1 44885U 19093G 24305.79619934 .00019502 00000-0 18510-2 0 9997
2 44885 97.8343 27.5432 0011097 218.2511 141.7922 14.93518174263736
RS-44
1 44909U 19096E 24305.14726992 .00000032 00000-0 76809-4 0 9994
2 44909 82.5262 14.4266 0218503 93.3520 269.2601 12.79735407226367
UPMSat 2
1 46276U 20061E 24305.43751161 .00053610 00000-0 12194-2 0 9990
2 46276 97.2802 10.6876 0001497 55.9805 304.1585 15.42808752231112
AmicalSat
1 46287U 20061R 24305.08704606 .00198804 00000-0 24842-2 0 9993
2 46287 97.3287 13.8888 0000950 117.1212 243.0141 15.59164621230550
SALSAT
1 46495U 20068K 24305.82295493 .00020340 00000-0 10340-2 0 9999
2 46495 97.8337 268.9959 0011884 194.9174 165.1709 15.16834133224992
SOMP 2b
1 47445U 21006AJ 24305.65709640 .00633314 00000-0 22936-2 0 9998
2 47445 97.2900 8.0412 0000294 321.9413 38.1838 15.87053913209909
IDEASSat
1 47458U 21006AX 24305.60641125 .00296357 00000-0 22605-2 0 9995
2 47458 97.3071 7.5852 0002458 91.6226 268.5318 15.71333327209750
CubeSX-Sirius-HSE
1 47951U 21022V 24305.84122220 .00081906 00000-0 22249-2 0 9993
2 47951 97.4417 204.6383 0012750 28.7594 331.4351 15.37186742199470
CubeSX-HSE
1 47952U 21022W 24305.84458153 .00078131 00000-0 21063-2 0 9990
2 47952 97.4416 204.7700 0012780 27.7488 332.4435 15.37438624199482
KSU-Cubesat
1 47954U 21022Y 24305.20139689 .00113246 00000-0 24636-2 0 9998
2 47954 97.4419 206.3253 0011151 27.7943 332.3898 15.43823935199241
GRBAlpha
1 47959U 21022AD 24305.80259126 .00079711 00000-0 21468-2 0 9996
2 47959 97.4417 204.8948 0012718 27.7160 332.4760 15.37462694198308
Orbicraft-Zorkiy
1 47960U 21022AE 24305.68125008 .00083961 00000-0 19747-2 0 9994
2 47960 97.4457 206.7056 0011640 28.7619 331.4268 15.41602014199072
TUBIN
1 48900U 21059X 24305.80756162 .00051404 00000-0 13366-2 0 9992
2 48900 97.6608 95.3185 0005647 325.9665 34.1217 15.38744361185866
LEDSAT
1 49069U 21073D 24305.74208962 .00057684 00000-0 17356-2 0 9997
2 49069 97.4228 16.5974 0016352 157.2198 202.9773 15.34038206177315
CUTE
1 49263U 21088D 24305.58939022 .00064931 00000-0 22311-2 0 9999
2 49263 97.4810 11.3791 0010631 326.1837 33.8724 15.29813631170417
TeikyoSat 4
1 49396U 21102B 24305.54684983 .00007989 00000-0 55486-3 0 9992
2 49396 97.4424 345.8036 0013279 165.0692 195.0929 15.05734638163268
Z-Sat
1 49399U 21102E 24305.83034333 .00013778 00000-0 82718-3 0 9996
2 49399 97.4142 348.0402 0020333 144.0137 216.2466 15.10851363163601
KOSEN 1
1 49402U 21102H 24305.82188029 .00020994 00000-0 11234-2 0 9994
2 49402 97.4065 350.0438 0018752 126.2617 234.0352 15.14915804163808
HO-113
1 50466U 21131B 24305.88331738 .00003329 00000-0 10668-2 0 9994
2 50466 98.5234 30.3145 0005186 82.9498 277.2280 14.40172572149678
IRIS-A
1 51044U 22002BN 24305.65737596 .00072691 00000-0 16448-2 0 9992
2 51044 97.3673 12.4667 0003831 261.9618 98.1195 15.42873150155375
Planetum 1
1 52738U 22057G 24305.81348118 .00410349 00000-0 25575-2 0 9996
2 52738 97.5707 79.3998 0005403 313.1068 46.9744 15.75756227135775
Foresail-1
1 52766U 22057AL 24305.30292248 .00068223 00000-0 15281-2 0 9996
2 52766 97.5963 75.0736 0007556 4.9408 355.1913 15.43175175135356
SNUGLITE 2
1 52899U 22065F 24305.86717307 .00006170 00000-0 12419-2 0 9994
2 52899 98.1392 84.6116 0008627 87.1798 273.0390 14.61876681124229
IO-117
1 53106U 22080B 24304.53297825 -.00000003 00000-0 00000+0 0 9994
2 53106 70.1303 145.5071 0008350 77.3743 282.7850 6.42557747 53963
FO-118
1 54684U 22167C 24305.87675821 .00123323 00000-0 23900-2 0 9993
2 54684 97.6159 95.4559 0007319 8.1192 352.0174 15.47215036105297
SSS-2B
1 56184U 23054G 24305.81390490 .00233747 00000-0 21851-2 0 9991
2 56184 97.3446 206.6535 0008007 68.6240 291.5874 15.66506316 87300
SO-120
1 56992U 23084BU 24305.79256222 .00143159 00000-0 27655-2 0 9997
2 56992 97.5394 68.2047 0010005 261.0907 98.9210 15.47209454 77147
MRC-100
1 56993U 23084BV 24305.30447505 .00213530 00000-0 31505-2 0 9991
2 56993 97.5371 68.8791 0009824 260.2846 99.7298 15.54574749 77151
UmKA 1 (RS40S)
1 57172U 23091G 24305.87779300 .00018221 00000-0 11006-2 0 9996
2 57172 97.5948 356.6684 0016373 20.1183 340.0689 15.10634523 74101
CubeBel-2 (EU11S)
1 57175U 23091K 24305.85984171 .00022716 00000-0 13068-2 0 9995
2 57175 97.5943 356.8340 0014753 31.4039 328.8069 15.12372314 74111
VERONIKA
1 58261U 23174F 24305.83860029 .00070672 00000-0 22863-2 0 9994
2 58261 97.4464 20.1087 0010408 120.8374 239.3893 15.31739271 54548
